Flag for U.S.A. Weather past 2 weeks in Honolulu, Hawaii, U.S.A.

Now
75 °F

Scattered clouds.


Feels Like: 77 °F
Forecast: 70 / 79 °F
Wind: 14 mph from Northeast

Location: Honolulu International Airport

Current Time: Apr 18, 2015 at 7:25:03 AM

Latest Report: Apr 18, 2015 at 6:53 AM


Visibility: 10 mi

Pressure: 30.11 "Hg

Humidity: 69%

Dew point: 64 °F

Location of HonoluluLocation

Historic Weather in Honolulu — Graph

°F

Honolulu temperature yesterday

Maximum temperature yesterday: 83 °F (at 11:53 AM)
Minimum temperature yesterday: 70 °F (at 2:53 AM)
Average temperature yesterday: 76 °F

Past Weeks' High & Low Weather Summary

 TemperatureHumidityPressure
High85 °F (Apr 11, 2:53 PM)100% (Apr 3, 5:53 AM)30.12 "Hg (Apr 3, 5:53 AM)
Low66 °F (Apr 3, 5:53 AM)36% (Apr 6, 9:53 AM)29.93 "Hg (Apr 3, 2:53 PM)
Average76 °F65%30.04 "Hg
* Reported Apr 3 5:53 AM — Apr 18 5:53 AM, Honolulu, Weather by CustomWeather, © 2015

Note: Actual official high and low records may vary slightly from our data, if they occured in-between our weather recording intervals... More about our weather records

Advertising

Honolulu weather history for previous 24 hours

 ConditionsComfort  
Time TempWeatherWind HumidityBarometerVisibility
5:53 AM
Sat, Apr 18
74 °FPassing clouds.13 mph69%30.09 "Hg10 mi
4:53 AM74 °FPassing clouds.14 mph71%30.07 "Hg10 mi
3:53 AM74 °FPassing clouds.12 mph71%30.07 "Hg10 mi
2:53 AM74 °FPassing clouds.13 mph69%30.07 "Hg10 mi
1:53 AM74 °FPassing clouds.13 mph71%30.09 "Hg10 mi
12:53 AM75 °FPassing clouds.13 mph69%30.10 "Hg10 mi
11:53 PM
Fri, Apr 17
75 °FPassing clouds.13 mph69%30.12 "Hg10 mi
10:53 PM75 °FPassing clouds.16 mph69%30.12 "Hg10 mi
9:53 PM75 °FPassing clouds.16 mph71%30.11 "Hg10 mi
8:53 PM76 °FPassing clouds.15 mph69%30.09 "Hg10 mi
7:53 PM76 °FPassing clouds.20 mph69%30.06 "Hg10 mi
6:53 PM77 °FPassing clouds.17 mph66%30.03 "Hg10 mi
5:53 PM79 °FScattered clouds.18 mph58%30.03 "Hg10 mi
4:53 PM81 °FScattered clouds.18 mph54%30.01 "Hg10 mi
3:53 PM82 °FScattered clouds.16 mph53%30.01 "Hg10 mi
2:53 PM82 °FScattered clouds.18 mph53%30.00 "Hg10 mi
1:53 PM83 °FScattered clouds.21 mph51%30.01 "Hg10 mi
12:53 PM81 °FScattered clouds.22 mph56%30.03 "Hg10 mi
11:53 AM83 °FScattered clouds.18 mph53%30.05 "Hg10 mi
10:53 AM80 °FScattered clouds.18 mph60%30.07 "Hg10 mi
9:53 AM78 °FScattered clouds.20 mph66%30.07 "Hg10 mi
8:53 AM76 °FScattered clouds.16 mph72%30.07 "Hg10 mi
7:53 AM74 °FSunny.13 mph76%30.06 "Hg10 mi
Weather by CustomWeather, © 2015

See weather overviewHow to use our weather pages